EW0427 Weather Reports


time (UTC)temp
C
wind
direction
speed
KPH
gust
KPH
rain 1hr
cm
rain 24hr
cm
rain mn
cm
humidity
%
barometer
mb
20260504001537 12 242 11.3 22.5 0.00 0.00 0.00 48 1012.6
20260504000037 13 269 16.1 29.0 0.00 0.00 0.00 47 1012.5
20260503234542 13 232 8.0 25.7 0.00 0.00 0.00 48 1012.6
20260503233038 13 242 8.0 27.4 0.00 0.00 0.00 46 1012.7
20260503231538 13 252 11.3 29.0 0.00 0.00 0.00 46 1012.7
20260503230040 13 238 11.3 27.4 0.00 0.00 0.00 46 1012.7
20260503224537 13 289 12.9 22.5 0.00 0.00 0.00 46 1012.8
20260503223037 13 300 8.0 25.7 0.00 0.00 0.00 46 1012.9
20260503221541 13 255 17.7 35.4 0.00 0.00 0.00 44 1013.0
20260503220042 14 230 16.1 30.6 0.00 0.00 0.00 43 1012.9
20260503214538 13 271 16.1 33.8 0.00 0.00 0.00 44 1013.1
20260503213051 13 233 16.1 29.0 0.00 0.00 0.00 44 1013.0
20260503211537 13 245 12.9 37.0 0.00 0.00 0.00 45 1012.9
20260503210043 13 249 14.5 29.0 0.00 0.00 0.00 44 1013.0
20260503204550 14 239 14.5 35.4 0.00 0.00 0.00 44 1012.9
20260503203042 14 249 16.1 33.8 0.00 0.00 0.00 43 1013.0
20260503201538 14 248 19.3 35.4 0.00 0.00 0.00 42 1013.0
20260503200037 15 313 22.5 40.2 0.00 0.00 0.00 41 1013.4
20260503194542 15 235 14.5 33.8 0.00 0.00 0.00 42 1013.5
20260503193046 15 175 12.9 46.7 0.00 0.00 0.00 42 1013.8
20260503191535 15 258 20.9 33.8 0.00 0.00 0.00 42 1013.8
20260503190041 14 247 12.9 33.8 0.00 0.00 0.00 42 1014.0
20260503184551 13 246 16.1 38.6 0.00 0.00 0.00 43 1014.1
20260503183058 14 315 12.9 37.0 0.00 0.00 0.00 42 1014.1
20260503181540 14 262 22.5 37.0 0.00 0.00 0.00 42 1014.4
20260503180043 13 242 20.9 37.0 0.00 0.00 0.00 42 1014.5
20260503174536 14 266 20.9 46.7 0.00 0.00 0.00 42 1014.7
20260503173108 13 294 16.1 35.4 0.00 0.00 0.00 44 1014.8
20260503171542 13 290 17.7 38.6 0.00 0.00 0.00 44 1015.0
20260503081539 1 307 0.0 4.8 0.00 0.15 0.00 87 1016.2
20260503071539 1 307 3.2 6.4 0.00 0.15 0.00 86 1016.1
20260503054539 1 0 0.0 3.2 0.00 0.18 0.00 84 1016.5
20260503053042 1 0 0.0 3.2 0.00 0.18 0.00 84 1016.6
20260503051540 1 0 0.0 1.6 0.00 0.18 0.00 84 1016.7
20260503050038 1 0 0.0 3.2 0.00 0.18 0.00 83 1016.8
20260503044540 2 0 0.0 4.8 0.00 0.18 0.00 83 1016.9
20260503043041 2 0 0.0 1.6 0.00 0.18 0.00 82 1016.8
20260503041537 2 0 0.0 3.2 0.00 0.18 0.00 81 1016.8
20260503040050 2 0 0.0 3.2 0.00 0.18 0.00 82 1017.0
20260503034558 2 307 1.6 4.8 0.00 0.18 0.18 82 1016.9
20260503033044 2 307 0.0 4.8 0.00 0.18 0.18 83 1016.9
20260503031541 3 307 0.0 3.2 0.00 0.18 0.18 84 1017.1
20260503030048 3 0 0.0 1.6 0.00 0.18 0.18 84 1017.1
20260503024536 3 0 0.0 0.0 0.00 0.18 0.18 83 1017.4
20260503023041 3 0 0.0 0.0 0.00 0.18 0.18 83 1017.5
20260503021544 3 0 0.0 0.0 0.00 0.18 0.18 82 1017.5
20260503020041 3 0 0.0 0.0 0.00 0.18 0.18 81 1017.4
20260503014540 3 0 0.0 1.6 0.00 0.18 0.18 79 1017.4
20260503013037 3 0 0.0 0.0 0.00 0.18 0.18 78 1017.4
20260503011537 3 0 0.0 1.6 0.00 0.18 0.18 75 1017.4
20260503010041 3 0 0.0 0.0 0.00 0.18 0.18 75 1017.4
20260503004538 3 0 0.0 4.8 0.00 0.18 0.18 72 1017.3
20260503003038 3 0 0.0 4.8 0.00 0.18 0.18 71 1017.3